Snowfall_Accumulation
0.0 0.0 0.0 0.0 0.0 0.0 0.0 0.0 0.0 0.0 0.0 0.0 0.0 0.0 0.0 0.0 0.0 0.0 0.0 0.0 0.0 0.0 0.0 0.0 0.0 0.0 0.0 0.0 0.0 0.0 0.0 0.0 0.0 0.1 0.0 0.0 0.0 0.0 0.0 0.0 0.0 0.0 0.2
0.0 0.0 0.0 0.0 0.0 0.0 0.0 0.0 0.0 0.0 0.0 0.0 0.0 0.0 0.0 0.0 0.0 0.0 0.0 0.0 0.0 0.0 0.0 0.0 0.0 0.0 0.0 0.0 0.1 0.0 0.0 0.0 0.0 0.2 0.2 0.2 0.3 0.1 0.2 0.1 0.0 0.0 0.0
0.0 0.0 0.0 0.0 0.0 0.0 0.0 0.0 0.0 0.0 0.0 0.0 0.0 0.0 0.0 0.0 0.0 0.0 0.0 0.0 0.0 0.0 0.0 0.0 0.0 0.0 0.0 0.1 0.1 0.2 0.2 0.0 0.2 0.3 0.7 0.4 0.7 1.1 1.2 0.6 0.3 0.1 0.0
0.0 0.0 0.0 0.0 0.0 0.0 0.0 0.0 0.0 0.0 0.0 0.0 0.0 0.0 0.0 0.0 0.0 0.0 0.0 0.1 0.0 0.0 0.0 0.0 0.0 0.0 0.0 0.0 0.0 0.0 0.0 0.2 0.2 0.4 0.7 1.4 2.0 2.9 1.0 1.6 1.9 0.7 0.3
0.0 0.0 0.1 0.0 0.0 0.0 0.0 0.0 0.0 0.0 0.0 0.0 0.0 0.0 0.0 0.0 0.0 0.0 0.0 0.1 0.1 0.1 0.1 0.0 0.0 nan nan nan 0.1 0.1 0.0 0.1 0.4 0.6 1.4 2.4 3.9 5.0 4.3 3.5 1.4 1.2 0.7
0.1 0.3 0.1 0.1 0.1 0.0 0.0 0.0 0.0 0.0 0.0 0.1 0.0 0.0 0.1 0.0 nan nan 0.0 0.1 0.1 0.1 0.1 0.0 0.0 0.0 0.0 nan nan nan nan 0.0 0.2 0.5 1.3 2.5 2.6 2.4 2.4 2.4 2.1 2.3 2.2
0.0 1.2 0.8 0.3 2.8 0.4 0.0 0.1 0.1 0.3 0.2 0.2 0.3 0.2 0.5 0.2 nan nan nan 0.2 0.2 0.2 0.1 0.1 0.1 0.0 nan 0.0 nan nan nan nan nan 0.0 0.6 0.7 1.9 1.5 1.4 2.0 1.4 0.9 0.9
0.0 0.0 0.4 0.4 2.6 6.2 2.0 2.9 3.8 1.5 2.5 1.7 2.1 2.3 1.3 1.6 nan nan nan 1.3 0.9 0.9 1.1 0.3 0.2 0.2 0.1 0.0 0.0 0.1 0.2 0.2 0.2 0.2 0.1 0.4 0.2 0.3 0.4 0.4 0.7 0.7 0.5
0.0 0.0 0.0 0.3 1.7 3.5 6.3 8.0 6.3 5.5 5.4 5.2 2.6 3.2 3.7 3.8 nan nan 0.7 1.8 3.4 5.3 3.1 1.7 1.5 1.4 nan nan 1.3 2.6 3.0 5.5 nan nan nan nan nan nan nan 1.8 3.3 1.1 1.2
0.0 0.0 0.0 0.0 0.1 0.7 2.3 5.3 5.3 2.7 5.0 4.0 5.0 3.5 nan 4.7 nan nan nan 1.7 3.1 3.8 2.6 1.6 nan 1.0 nan nan 0.5 0.9 4.2 9.2 5.2 4.7 4.8 3.7 nan nan nan 0.5 1.2 1.6 2.9
0.1 0.0 0.0 0.0 0.1 0.5 1.8 2.8 2.7 2.7 2.8 3.2 3.5 3.9 3.0 2.0 2.8 nan nan 1.6 3.3 4.2 4.2 4.8 2.9 nan nan nan nan 1.5 7.3 7.7 6.6 7.6 7.0 6.8 6.0 5.5 6.1 6.0 4.0 3.7 4.5
0.9 0.7 0.6 0.3 0.4 1.2 2.4 2.7 2.8 3.3 3.3 2.6 2.7 3.7 4.3 3.4 nan nan nan nan nan 2.8 4.7 4.9 3.8 nan nan nan 2.4 nan nan 2.7 7.7 9.1 8.3 8.7 7.2 6.4 5.5 4.5 4.4 4.7 5.3
2.9 3.3 2.7 2.2 2.9 2.7 3.7 5.1 5.2 3.7 3.9 2.8 2.9 3.2 4.2 4.3 4.1 nan nan nan nan 3.6 4.0 6.4 nan nan nan 1.8 nan nan 3.6 5.5 6.6 8.0 7.7 7.9 5.9 4.3 2.3 2.2 0.9 0.8 1.3
2.6 2.9 3.4 4.7 3.5 4.1 3.7 4.1 4.2 5.5 6.0 4.1 3.6 4.8 5.4 5.3 4.8 4.0 4.1 4.0 2.4 4.6 2.0 4.7 3.1 3.3 2.6 3.6 4.1 5.2 5.1 4.7 5.2 5.5 4.6 3.3 2.2 2.0 1.6 0.8 1.1 1.0 1.3
1.2 3.0 3.4 3.1 2.5 4.8 5.0 4.5 3.8 3.8 3.2 4.0 4.0 3.4 6.8 8.5 9.5 5.1 7.0 6.2 5.0 4.6 3.2 4.3 3.9 3.2 3.4 3.7 3.7 3.8 3.1 3.0 3.6 4.0 3.4 2.5 1.8 1.2 1.0 0.5 0.6 0.9 1.6
2.8 3.1 4.2 5.3 4.4 4.3 5.4 7.3 nan nan nan nan nan 3.3 6.0 nan nan nan nan nan nan nan 3.2 4.7 8.3 8.1 5.7 4.2 4.5 4.2 3.6 3.0 2.8 2.4 2.7 1.8 1.8 2.0 1.5 1.2 1.0 1.4 1.4
0.7 1.2 4.0 4.2 6.1 5.9 6.2 6.4 8.0 10.4 nan nan nan nan nan nan nan nan nan nan nan nan 5.0 5.2 8.3 8.5 4.4 2.4 2.6 2.7 4.2 3.6 1.2 2.1 2.2 2.5 2.4 1.7 2.2 1.5 1.7 1.4 1.4
0.3 0.3 1.4 2.0 2.9 4.1 6.0 4.9 4.3 6.2 7.8 8.7 nan nan nan nan nan nan nan nan 4.9 nan 2.1 3.7 6.0 4.3 1.9 1.5 1.6 1.9 2.0 2.8 2.9 2.3 3.6 5.1 6.3 3.8 3.5 2.4 1.9 3.5 1.5
0.5 1.1 1.5 2.4 2.8 3.0 2.9 3.2 4.6 5.3 5.9 6.9 6.5 4.1 3.4 nan nan nan nan 3.5 4.4 3.6 2.3 2.0 3.0 2.3 1.6 0.9 4.4 5.4 7.7 6.6 6.6 9.3 4.5 5.6 12.7 2.5 3.0 2.2 2.3 2.0 1.9
1.3 1.0 1.5 2.4 2.6 2.9 2.8 2.9 3.2 3.5 4.1 4.5 4.8 5.7 5.1 3.8 11.7 16.0 13.1 12.6 9.0 3.8 3.5 2.1 2.0 2.0 3.1 2.8 6.9 12.2 9.2 9.0 6.7 4.6 11.1 16.5 13.4 5.1 5.1 4.4 5.1 5.0 1.4
1.1 1.3 0.0 1.9 2.0 1.7 1.8 2.2 2.0 2.6 3.0 3.1 5.2 7.6 2.0 2.8 6.2 5.5 4.9 8.7 7.2 4.0 7.5 3.1 4.7 6.0 7.2 7.0 2.6 6.2 2.5 5.3 5.5 6.0 5.0 5.3 27.7 7.7 3.8 3.7 4.3 3.2 2.0
0.9 1.0 1.0 1.3 1.1 2.0 1.5 1.2 1.8 1.9 1.9 2.5 4.0 11.4 3.3 5.1 3.6 3.9 3.9 7.4 8.9 4.0 3.5 4.3 3.4 3.1 3.3 3.4 3.8 12.7 9.9 15.1 10.9 8.1 7.2 8.0 5.7 5.6 5.0 4.5 6.2 7.0 3.7
0.9 1.6 0.9 0.7 0.8 4.0 2.9 1.4 2.6 3.1 2.9 4.8 4.0 4.9 4.8 7.0 6.9 4.4 5.8 10.3 5.1 6.2 5.1 4.0 8.0 5.2 4.6 6.6 5.7 4.5 7.4 6.7 6.9 8.5 11.8 12.0 6.7 6.4 8.8 8.0 5.6 8.0 7.8
1.0 1.7 1.1 2.4 3.6 1.9 5.3 8.4 5.3 5.8 3.5 5.6 11.1 8.6 6.3 6.7 13.7 10.6 11.9 14.2 9.0 12.0 11.9 12.3 5.4 4.1 4.0 12.1 11.9 6.2 3.9 7.4 6.1 7.2 7.3 11.4 7.7 5.3 8.7 7.0 6.5 8.0 9.4
2.8 4.9 4.9 3.3 5.6 7.5 11.0 7.3 8.2 9.3 8.6 11.2 14.3 10.7 4.0 5.7 6.0 15.3 12.3 8.8 7.9 12.9 7.0 9.0 7.1 4.6 5.8 5.6 5.5 2.6 4.1 4.6 7.4 5.0 9.5 7.2 9.1 8.9 8.9 7.8 8.4 6.7 7.9
3.6 2.7 3.3 3.4 4.3 7.5 8.8 14.1 14.2 11.9 12.5 13.5 13.3 13.8 10.2 7.3 6.9 13.5 9.6 8.9 8.2 7.7 7.0 7.7 6.7 5.5 5.1 4.7 3.6 5.5 5.5 5.1 11.9 5.5 15.9 8.0 12.0 11.3 10.0 8.4 6.7 8.9 5.9
Water_Equivalent
0.00 0.00 0.00 0.00 0.00 0.00 0.00 0.00 0.00 0.00 0.00 0.00 0.00 0.00 0.00 0.00 0.00 0.00 0.00 0.00 0.00 0.00 0.00 0.00 0.00 0.00 0.00 0.00 0.00 0.00 0.00 0.00 0.00 0.02 0.00 0.00 0.00 0.00 0.01 0.00 0.00 0.00 0.08
0.00 0.00 0.00 0.00 0.00 0.00 0.00 0.00 0.00 0.00 0.00 0.00 0.00 0.00 0.00 0.00 0.00 0.00 0.00 0.00 0.00 0.00 0.00 0.00 0.00 0.00 0.00 0.00 0.03 0.00 0.00 0.01 0.01 0.06 0.07 0.06 0.11 0.04 0.05 0.03 0.00 0.00 0.01
0.00 0.00 0.00 0.00 0.00 0.00 0.00 0.00 0.00 0.00 0.00 0.00 0.00 0.00 0.00 0.01 0.01 0.01 0.01 0.01 0.00 0.00 0.00 0.00 0.00 0.00 0.00 0.04 0.03 0.07 0.06 0.01 0.06 0.10 0.20 0.13 0.25 0.28 0.29 0.16 0.07 0.02 0.00
0.00 0.00 0.00 0.01 0.00 0.00 0.00 0.00 0.00 0.00 0.00 0.00 0.00 0.00 0.01 0.00 0.00 0.02 0.02 0.02 0.02 0.01 0.00 0.00 0.00 0.00 0.01 0.00 0.00 0.01 0.00 0.05 0.05 0.11 0.20 0.39 0.53 0.74 0.26 0.31 0.34 0.16 0.06
0.01 0.02 0.03 0.01 0.01 0.00 0.00 0.00 0.00 0.00 0.00 0.00 0.00 0.00 0.00 0.00 0.00 0.02 0.02 0.03 0.03 0.02 0.02 0.00 0.00 nan nan nan 0.04 0.02 0.01 0.03 0.10 0.17 0.42 0.63 0.85 1.02 0.89 0.76 0.28 0.21 0.12
0.02 0.10 0.03 0.02 0.03 0.02 0.01 0.00 0.00 0.00 0.01 0.04 0.01 0.01 0.03 0.00 nan nan 0.00 0.03 0.04 0.04 0.05 0.01 0.01 0.01 0.01 nan nan nan nan 0.01 0.05 0.12 0.30 0.54 0.60 0.56 0.50 0.43 0.38 0.41 0.34
0.01 0.48 0.32 0.10 1.12 0.15 0.01 0.02 0.05 0.13 0.07 0.06 0.09 0.07 0.18 0.08 nan nan nan 0.08 0.08 0.05 0.05 0.05 0.02 0.00 nan 0.00 nan nan nan nan nan 0.00 0.12 0.15 0.36 0.35 0.33 0.37 0.23 0.15 0.17
0.00 0.00 0.15 0.13 1.05 2.47 0.80 1.08 1.37 0.54 0.86 0.54 0.62 0.68 0.40 0.60 nan nan nan 0.44 0.27 0.24 0.34 0.10 0.05 0.05 0.04 0.01 0.01 0.04 0.05 0.04 0.06 0.04 0.04 0.12 0.06 0.07 0.07 0.07 0.12 0.11 0.10
0.00 0.00 0.00 0.09 0.62 1.20 2.17 2.68 2.04 1.87 1.78 1.65 0.76 0.88 1.00 0.97 nan nan 0.19 0.53 1.06 1.76 1.08 0.50 0.43 0.38 nan nan 0.36 0.77 0.83 1.63 nan nan nan nan nan nan nan 0.37 0.59 0.19 0.34
0.00 0.00 0.00 0.00 0.02 0.19 0.55 1.45 1.57 0.66 1.38 1.10 1.37 1.01 nan 1.14 nan nan nan 0.45 0.59 0.87 0.62 0.45 nan 0.37 nan nan 0.14 0.20 0.91 2.13 1.49 1.43 1.39 1.12 nan nan nan 0.15 0.30 0.36 0.73
0.03 0.00 0.00 0.00 0.02 0.13 0.41 0.61 0.60 0.54 0.52 0.59 0.66 0.80 0.64 0.43 0.63 nan nan 0.34 0.72 0.81 0.82 1.05 0.75 nan nan nan nan 0.38 1.62 1.94 1.56 1.72 1.57 1.61 1.48 1.32 1.46 1.46 1.03 0.88 1.01
0.33 0.25 0.20 0.10 0.16 0.33 0.56 0.63 0.67 0.66 0.56 0.42 0.41 0.61 0.75 0.60 nan nan nan nan nan 0.51 0.83 1.00 0.95 nan nan nan 0.62 nan nan 0.81 1.95 2.13 1.82 1.72 1.38 1.22 1.09 0.97 0.94 0.99 1.11
1.05 1.06 0.87 0.81 0.94 0.79 0.95 1.10 1.11 0.74 0.74 0.45 0.54 0.61 0.78 0.79 0.78 nan nan nan nan 0.66 0.82 1.37 nan nan nan 0.59 nan nan 1.17 1.40 1.62 1.84 1.64 1.60 1.20 0.82 0.41 0.42 0.17 0.18 0.26
0.77 0.83 1.01 1.37 0.97 1.12 1.00 1.11 1.07 1.19 1.20 0.86 0.71 0.91 1.03 1.03 1.01 0.86 0.93 0.87 0.70 0.95 0.57 1.03 1.02 0.82 0.87 1.03 1.04 1.06 1.06 1.02 1.07 1.05 0.81 0.57 0.41 0.39 0.32 0.19 0.26 0.25 0.28
0.31 0.87 0.87 0.79 0.56 1.01 1.05 0.99 0.88 0.88 0.68 0.77 0.78 0.68 1.32 1.56 1.85 1.25 1.62 1.34 1.10 1.10 0.86 0.99 0.81 0.62 0.61 0.64 0.64 0.67 0.57 0.54 0.63 0.69 0.59 0.45 0.34 0.22 0.19 0.12 0.15 0.21 0.33
0.87 0.83 1.11 1.42 1.01 0.89 0.99 1.30 nan nan nan nan nan 0.71 1.29 nan nan nan nan nan nan nan 0.67 0.90 1.49 1.47 0.95 0.69 0.76 0.69 0.60 0.56 0.48 0.44 0.51 0.35 0.33 0.37 0.27 0.24 0.21 0.27 0.27
0.14 0.23 0.99 1.06 1.33 1.06 1.09 1.05 1.22 1.82 nan nan nan nan nan nan nan nan nan nan nan nan 0.95 0.85 1.40 1.48 0.79 0.40 0.44 0.45 0.63 0.57 0.17 0.39 0.41 0.48 0.47 0.35 0.43 0.32 0.34 0.28 0.27
0.06 0.12 0.32 0.42 0.57 0.82 1.08 0.91 0.84 1.13 1.35 1.36 nan nan nan nan nan nan nan nan 0.75 nan 0.40 0.64 0.93 0.73 0.35 0.28 0.28 0.31 0.34 0.49 0.51 0.42 0.63 0.89 1.10 0.68 0.65 0.43 0.35 0.58 0.29
0.13 0.27 0.36 0.59 0.70 0.71 0.70 0.72 0.91 1.05 1.11 1.18 1.11 0.86 0.90 nan nan nan nan 0.67 0.71 0.56 0.38 0.34 0.53 0.42 0.30 0.19 0.78 0.96 1.35 1.16 1.18 1.63 0.82 0.97 2.32 0.47 0.56 0.41 0.43 0.49 0.48
0.33 0.31 0.40 0.61 0.65 0.71 0.67 0.65 0.66 0.72 0.80 0.82 0.80 0.89 0.81 0.68 1.83 2.54 2.15 2.16 1.36 0.56 0.53 0.34 0.34 0.33 0.53 0.48 1.21 2.10 1.72 1.70 1.13 0.82 1.77 2.80 2.47 0.90 0.83 0.70 0.86 0.84 0.25
0.28 0.35 0.00 0.45 0.46 0.40 0.42 0.51 0.43 0.54 0.58 0.56 0.91 1.44 0.67 0.50 0.96 0.89 0.76 1.37 1.09 0.60 1.06 0.46 0.68 0.91 1.12 1.16 0.45 1.07 0.44 0.96 0.92 0.95 0.81 0.85 5.06 1.11 0.62 0.62 0.76 0.55 0.32
0.22 0.26 0.26 0.33 0.28 0.47 0.34 0.29 0.40 0.42 0.41 0.50 0.75 2.50 1.10 0.90 0.62 0.65 0.66 1.26 1.62 0.69 0.57 0.70 0.53 0.47 0.53 0.58 0.65 2.38 1.63 2.35 1.86 1.33 1.12 1.10 0.85 0.90 0.77 0.74 0.96 1.04 0.60
0.24 0.45 0.24 0.18 0.21 1.29 0.68 0.32 0.56 0.69 0.62 1.03 0.73 0.79 0.81 1.23 1.22 0.74 0.99 1.97 0.89 1.10 0.92 0.68 1.47 0.84 0.79 1.13 1.07 0.83 1.20 1.04 1.12 1.37 1.66 1.68 0.91 0.97 1.33 1.21 0.86 1.05 1.00
0.29 0.50 0.32 0.62 0.88 0.44 1.19 1.89 1.14 1.87 0.74 1.17 2.26 1.65 1.21 1.25 2.78 2.11 2.31 2.93 1.70 2.40 2.40 2.40 0.93 0.67 0.64 2.24 2.19 1.06 0.62 1.20 0.95 1.04 1.13 1.52 1.07 1.06 1.26 0.97 0.93 1.02 1.17
0.73 1.29 1.25 0.77 1.33 1.79 2.49 1.63 1.85 2.15 1.96 2.47 2.95 2.14 0.73 1.09 1.13 3.22 2.44 1.67 1.44 2.47 1.24 1.64 1.28 0.81 1.01 0.86 0.81 0.36 0.75 1.50 1.43 1.66 1.22 0.98 1.21 1.09 1.09 1.00 1.19 0.96 0.99
0.87 0.66 0.81 0.82 1.00 1.74 1.91 2.94 2.97 2.54 2.50 2.92 2.89 3.00 2.08 1.39 1.31 2.74 1.80 1.63 1.40 1.31 1.20 1.31 1.13 0.89 0.80 0.77 0.51 1.72 1.80 1.67 1.69 1.81 1.94 1.04 1.47 1.43 1.33 1.13 0.93 1.19 0.76
SL_Ratio
nan nan nan nan nan nan nan nan nan nan nan nan nan nan nan nan nan nan nan nan nan nan nan nan nan nan nan nan nan nan nan nan 3.6 2.6 5.0 nan 3.3 3.3 4.7 0.0 nan nan 2.5
nan nan nan nan nan nan nan nan nan nan nan nan nan nan nan nan nan nan nan nan nan nan nan nan nan nan nan nan 3.3 nan 3.3 2.7 3.0 3.1 2.8 3.3 3.1 3.0 4.0 4.6 0.0 nan 2.8
nan nan nan nan nan nan nan nan nan nan nan nan nan 0.0 3.3 2.5 2.5 2.4 2.6 2.8 nan nan nan nan 0.0 nan nan 3.5 3.6 3.6 3.4 3.5 3.2 3.0 3.5 3.0 2.8 3.8 4.2 3.5 4.0 5.3 nan
nan nan 0.0 2.5 2.7 2.9 nan nan nan nan nan nan nan nan 3.0 3.0 2.5 2.5 2.5 2.5 2.5 3.1 4.0 nan 3.3 4.3 3.5 nan 5.0 4.1 4.0 3.6 3.5 3.3 3.3 3.6 3.7 3.9 3.7 5.1 5.5 4.3 4.8
2.7 2.5 2.6 2.8 3.0 0.0 nan nan nan nan nan nan nan nan nan nan 3.1 2.5 2.6 2.5 2.5 2.6 2.5 nan 5.0 nan nan nan 3.7 4.0 4.2 3.9 3.9 3.7 3.3 3.9 4.6 4.9 4.9 4.6 4.9 5.8 5.9
2.9 2.8 2.7 2.5 2.5 2.6 2.5 nan nan nan 2.1 2.6 2.8 2.6 2.8 nan nan nan 2.1 2.9 2.5 2.5 2.5 2.4 2.6 3.0 3.1 nan nan nan nan 4.4 3.2 4.2 4.3 4.6 4.4 4.4 4.8 5.5 5.4 5.5 6.4
2.8 2.5 2.5 2.6 2.5 2.6 2.6 2.6 2.6 2.5 2.5 2.9 2.9 2.8 2.8 2.9 nan nan nan 2.7 2.9 3.0 2.7 2.5 2.5 nan nan nan nan nan nan nan nan 4.2 4.6 4.5 5.2 4.3 4.3 5.5 6.0 6.1 5.6
nan 2.3 2.6 2.9 2.5 2.5 2.5 2.7 2.8 2.8 2.9 3.2 3.4 3.4 3.3 2.6 nan nan nan 2.9 3.4 3.5 3.2 3.5 3.3 3.7 3.3 3.1 2.9 3.2 3.8 4.0 3.7 3.5 3.8 3.6 3.9 4.6 5.2 5.6 6.1 6.4 5.0
nan nan nan 2.7 2.8 2.9 2.9 3.0 3.1 3.0 3.1 3.2 3.4 3.6 3.7 3.9 nan nan 3.8 3.4 3.2 3.0 2.9 3.3 3.4 3.6 nan nan 3.6 3.4 3.5 3.4 nan nan nan nan nan nan nan 5.0 5.6 5.6 3.6
nan nan nan nan 2.5 3.5 4.2 3.7 3.4 4.0 3.6 3.6 3.7 3.4 nan 4.1 nan nan nan 3.9 5.2 4.4 4.2 3.6 nan 2.8 nan nan 3.8 4.5 4.6 4.3 3.5 3.3 3.4 3.3 nan nan nan 3.7 3.9 4.4 4.0
2.5 nan 1.8 0.0 2.7 3.6 4.5 4.6 4.4 5.0 5.4 5.5 5.4 4.9 4.7 4.6 4.4 nan nan 4.6 4.5 5.2 5.1 4.6 3.9 nan nan nan nan 3.9 4.5 4.0 4.2 4.4 4.5 4.2 4.1 4.2 4.2 4.1 3.9 4.1 4.4
2.8 2.9 2.8 2.8 2.8 3.6 4.3 4.3 4.1 5.0 5.9 6.2 6.5 6.1 5.7 5.7 nan nan nan nan nan 5.4 5.7 4.9 4.1 nan nan nan 3.9 nan nan 3.4 3.9 4.3 4.5 5.0 5.2 5.2 5.0 4.6 4.7 4.7 4.8
2.8 3.1 3.1 2.7 3.0 3.4 3.9 4.6 4.7 5.0 5.2 6.2 5.4 5.2 5.4 5.4 5.2 nan nan nan nan 5.5 4.9 4.7 nan nan nan 3.0 nan nan 3.0 3.9 4.0 4.4 4.7 5.0 4.9 5.2 5.5 5.2 5.1 4.8 5.3
3.4 3.5 3.4 3.5 3.6 3.6 3.6 3.7 3.9 4.6 5.0 4.8 5.1 5.3 5.3 5.2 4.8 4.6 4.5 4.6 3.4 4.8 3.5 4.5 3.0 4.0 3.0 3.5 4.0 4.9 4.8 4.7 4.9 5.2 5.7 5.7 5.3 5.1 5.0 4.3 4.4 4.2 4.4
3.7 3.5 3.9 4.0 4.5 4.7 4.8 4.5 4.3 4.3 4.7 5.2 5.2 5.1 5.2 5.4 5.1 4.1 4.3 4.6 4.6 4.2 3.7 4.4 4.8 5.2 5.6 5.7 5.7 5.6 5.5 5.5 5.8 5.8 5.7 5.6 5.4 5.3 4.9 4.0 4.2 4.5 4.8
3.2 3.8 3.8 3.7 4.3 4.8 5.5 5.6 nan nan nan nan nan 4.7 4.6 nan nan nan nan nan nan nan 4.7 5.2 5.6 5.5 6.0 6.1 6.0 6.1 6.0 5.2 6.0 5.4 5.2 5.2 5.4 5.5 5.3 4.9 4.9 5.2 5.4
5.1 5.1 4.0 4.0 4.5 5.6 5.7 6.1 6.6 5.7 nan nan nan nan nan nan nan nan nan nan nan nan 5.3 6.1 5.9 5.7 5.6 6.0 6.0 6.1 6.6 6.2 7.0 5.3 5.2 5.2 5.0 5.0 4.9 4.9 4.9 4.9 5.0
5.0 3.0 4.3 4.7 5.1 5.1 5.5 5.3 5.1 5.5 5.7 6.4 nan nan nan nan nan nan nan nan 6.5 nan 5.3 5.8 6.4 5.9 5.4 5.4 5.8 6.1 5.9 5.8 5.8 5.6 5.6 5.7 5.8 5.6 5.4 5.6 5.3 6.0 5.4
4.0 4.1 4.0 4.0 4.0 4.1 4.2 4.5 5.0 5.0 5.3 5.8 5.9 4.8 3.8 nan nan nan nan 5.2 6.3 6.4 5.9 6.1 5.7 5.6 5.3 4.6 5.6 5.6 5.7 5.7 5.6 5.7 5.6 5.8 5.5 5.3 5.4 5.4 5.4 4.0 4.0
3.8 3.2 3.8 4.0 4.0 4.1 4.2 4.4 4.7 4.9 5.2 5.5 6.0 6.4 6.3 5.6 6.4 6.3 6.1 5.8 6.6 6.7 6.5 6.1 5.9 5.9 5.9 5.7 5.7 5.8 5.3 5.3 5.9 5.6 6.3 5.9 5.4 5.7 6.1 6.2 5.9 5.9 5.6
4.0 3.9 3.1 4.2 4.3 4.2 4.2 4.3 4.6 4.8 5.2 5.7 5.8 5.3 3.0 5.6 6.4 6.2 6.4 6.3 6.6 6.6 7.1 6.7 6.9 6.6 6.4 6.0 5.8 5.8 5.7 5.5 6.0 6.3 6.1 6.3 5.5 6.9 6.1 5.9 5.6 5.9 6.1
3.8 4.0 4.0 3.9 4.0 4.2 4.3 4.2 4.4 4.5 4.7 4.9 5.3 4.6 3.0 5.6 5.8 6.0 6.0 5.9 5.5 5.8 6.3 6.2 6.5 6.6 6.3 5.9 5.9 5.3 6.1 6.4 5.8 6.1 6.4 7.3 6.7 6.2 6.5 6.1 6.4 6.7 6.1
3.8 3.5 3.6 3.9 3.8 3.1 4.3 4.2 4.6 4.4 4.6 4.7 5.4 6.2 5.9 5.7 5.6 6.0 5.8 5.2 5.8 5.7 5.6 5.8 5.5 6.2 5.9 5.8 5.3 5.5 6.2 6.4 6.2 6.2 7.1 7.1 7.3 6.7 6.6 6.6 6.5 7.6 7.8
3.3 3.4 3.5 3.9 4.1 4.4 4.5 4.5 4.7 3.1 4.7 4.7 4.9 5.2 5.2 5.3 4.9 5.0 5.1 4.8 5.3 5.0 5.0 5.1 5.8 6.1 6.2 5.4 5.4 5.9 6.2 6.1 6.4 7.0 6.4 7.5 7.2 5.0 6.9 7.3 7.0 7.8 8.0
3.8 3.8 4.0 4.3 4.2 4.2 4.4 4.5 4.5 4.3 4.4 4.5 4.8 5.0 5.5 5.2 5.3 4.7 5.1 5.3 5.5 5.2 5.7 5.5 5.5 5.7 5.7 6.5 6.9 7.1 5.5 3.0 5.2 3.0 7.7 7.3 7.5 8.1 8.2 7.8 7.1 7.1 8.0
4.1 4.1 4.1 4.2 4.3 4.3 4.6 4.8 4.8 4.7 5.0 4.6 4.6 4.6 4.9 5.2 5.3 4.9 5.3 5.4 5.9 5.9 5.8 5.9 5.9 6.1 6.4 6.2 7.0 3.2 3.0 3.0 7.1 3.0 8.2 7.7 8.2 7.9 7.5 7.5 7.2 7.5 7.8